Content
SEND FEEDBACK

Daily
Averages
Monthly
Summary
United States of America

MORRISVILLE, NORTH CAROLINA


Home > North America > United States > North Carolina
Elevation: 118 meters     Latitude: 35 52N     Longitude: 078 47W

WEATHER
 
SELECT A DAY
Number of Records: 197,411;   Date Range: 1/1/95 - 12/18/14
 
SHARE

PRINT THIS DATA

[ ← Previous Day ]
WEATHER ALMANAC - 31 JANUARY, 2013
[ Next Day → ]
[ °F ]   °C
Weather ElementAverageHighLow
Temperature7.7 °C14.4 °C (12:51 am)1.1 °C (11:51 pm)
Dewpoint-2.3 °C11.7 °C (12:51 am)-8.3 °C (2:51 pm)
Humidity51.9 %86 % (1:51 am)28 % (2:51 pm)
Barometer1009.1 hPa1016.6 hPa (11:51 pm)998.3 hPa (1:51 am)
Wind Speed21.1 km/h37 km/h (1:51 am)
Wind Gust64.9 km/h (12:51 am)
Weather ElementAverage
Visibility15.8 km
Wind DirectionWSW (262.9 °)

Weather ElementTotal
Precipitation3.05 mm
Heating Degree Days10.6 (Base 18.3)
Averaged from 24 records on 31 January, 2013
WEATHER CONDITIONS BREAKOUT
WIND DIRECTION BREAKOUT
WEATHER BY HOUR - 31 JANUARY, 2013
[ °F ]   °C
Local TimeTemperatureDewpointHumidityBarometerVisibilityWind DirectionWind SpeedGust SpeedPrecipitationEventsConditions
12:51 AM14.4 °C11.7 °C84 %998.6 hPa9.7 kmWSW (250°)31.5 km/h64.9 km/h1.02 mmRainLight Rain
1:51 AM12.2 °C10 °C86 %998.3 hPa16.1 kmSW (230°)37 km/h2.03 mmRainLight Rain
2:51 AM10.6 °C7.8 °C83 %998.6 hPa16.1 kmWSW (240°)35.2 km/h55.5 km/h0 mmMostly Cloudy
3:51 AM10.6 °C6.7 °C77 %999.7 hPa16.1 kmWSW (250°)33.3 km/h55.5 km/hMostly Cloudy
4:51 AM10 °C6.7 °C80 %1001 hPa16.1 kmWest (260°)20.4 km/h38.9 km/h0 mmRainLight Rain
5:51 AM9.4 °C4.4 °C71 %1003 hPa16.1 kmWest (260°)16.7 km/h0 mmMostly Cloudy
6:51 AM8.3 °C-1.1 °C52 %1004.7 hPa16.1 kmWest (280°)20.4 km/h38.9 km/hScattered Clouds
7:51 AM7.2 °C-2.8 °C49 %1006.8 hPa16.1 kmWest (280°)25.9 km/h53.8 km/hScattered Clouds
8:51 AM7.2 °C-2.2 °C52 %1008.5 hPa16.1 kmWest (280°)20.4 km/h40.7 km/hScattered Clouds
9:51 AM7.2 °C-5 °C42 %1010.2 hPa16.1 kmWNW (300°)20.4 km/h40.7 km/hPartly Cloudy
10:51 AM7.8 °C-4.4 °C42 %1011.2 hPa16.1 kmWest (270°)27.8 km/h42.6 km/hPartly Cloudy
11:51 AM8.9 °C-5 °C37 %1011.2 hPa16.1 kmWest (280°)20.4 km/h31.5 km/hPartly Cloudy
12:51 PM8.9 °C-5.6 °C36 %1010.8 hPa16.1 kmWest (260°)27.8 km/h37 km/hPartly Cloudy
1:51 PM8.9 °C-6.7 °C33 %1011.2 hPa16.1 kmWest (260°)29.6 km/h48.1 km/hPartly Cloudy
2:51 PM9.4 °C-8.3 °C28 %1011.2 hPa16.1 kmWest (280°)27.8 km/h44.4 km/hPartly Cloudy
3:51 PM8.3 °C-7.8 °C32 %1012.2 hPa16.1 kmWest (270°)18.5 km/h38.9 km/hPartly Cloudy
4:51 PM8.3 °C-6.7 °C34 %1013.5 hPa16.1 kmWest (260°)24.1 km/h38.9 km/hPartly Cloudy
5:51 PM6.7 °C-6.7 °C38 %1013.9 hPa16.1 kmWest (280°)13 km/hScattered Clouds
6:51 PM6.1 °C-7.2 °C38 %1015.2 hPa16.1 kmWNW (290°)14.8 km/h25.9 km/hPartly Cloudy
7:51 PM5 °C-7.2 °C41 %1016.3 hPa16.1 kmWest (260°)11.1 km/hClear
8:51 PM4.4 °C-7.2 °C43 %1016.3 hPa16.1 kmWest (260°)5.6 km/hClear
9:51 PM2.8 °C-6.7 °C50 %1016.3 hPa16.1 kmWSW (250°)5.6 km/hClear
10:51 PM1.7 °C-5.6 °C59 %1016.3 hPa16.1 kmSW (230°)9.3 km/hClear
11:51 PM1.1 °C-6.1 °C59 %1016.6 hPa16.1 kmSW (230°)9.3 km/hClear
Hourly data recorded from KRDU, located 0 kilometers away from Morrisville, North Carolina







STORIES FROM OUR PARTNERS